Flag for United Kingdom Weather past 2 weeks in London, England, United Kingdom

Now
52 °F

Sunny.


Feels Like: 47 °F
Forecast: 44 / 54 °F
Wind: 14 mph from Southwest

Location: Northolt

Current Time: Apr 28, 2015 at 7:50:09 PM

Latest Report: Apr 28, 2015 at 6:57 PM


Visibility: 10 mi

Pressure: 30.04 "Hg

Humidity: 54%

Dew point: 36 °F

Location of LondonLocation

Historic Weather in London — Graph

°F

London temperature yesterday

Maximum temperature yesterday: 54 °F (at 1:50 PM)
Minimum temperature yesterday: 37 °F (at 4:50 AM)
Average temperature yesterday: 46 °F

Past Weeks' High & Low Weather Summary

 TemperatureHumidityPressure
High75 °F (Apr 15, 2:50 PM)100% (Apr 14, 3:50 AM)30.57 "Hg (Apr 14, 3:50 AM)
Low36 °F (Apr 20, 4:50 AM)23% (Apr 15, 5:50 PM)29.65 "Hg (Apr 25, 2:50 PM)
Average52 °F64%30.11 "Hg
* Reported Apr 13 6:50 PM — Apr 28 6:57 PM, London, Weather by CustomWeather, © 2015

Note: Actual official high and low records may vary slightly from our data, if they occured in-between our weather recording intervals... More about our weather records

Advertising

London weather history for previous 24 hours

 ConditionsComfort  
Time TempWeatherWind HumidityBarometerVisibility
6:57 PM
Tue, Apr 28
52 °FSunny.14 mph54%30.04 "Hg10 mi
5:50 PM54 °FSunny.14 mph38%30.04 "Hg10 mi
4:50 PM54 °FSunny.14 mph35%30.04 "Hg10 mi
3:54 PM55 °FSunny.17 mph36%30.04 "Hg10 mi
2:50 PM54 °FSunny.17 mph38%30.04 "Hg10 mi
1:50 PM54 °FSunny.18 mph38%30.07 "Hg10 mi
12:50 PM54 °FSunny.17 mph38%30.07 "Hg10 mi
11:50 AM52 °FSunny.16 mph44%30.04 "Hg10 mi
10:50 AM48 °FPassing clouds.17 mph46%30.04 "HgN/A
9:50 AM48 °FPassing clouds.15 mph50%30.04 "HgN/A
8:50 AM45 °FPassing clouds.13 mph61%30.01 "HgN/A
7:50 AM41 °FSunny.12 mph76%30.01 "Hg10 mi
6:50 AM39 °FSunny.9 mph81%29.98 "Hg10 mi
5:50 AM37 °FClear.8 mph87%29.95 "HgN/A
4:50 AM37 °FClear.8 mph93%29.92 "HgN/A
3:50 AM39 °FClear.8 mph87%29.92 "HgN/A
2:50 AM39 °FPassing clouds.8 mph87%29.92 "HgN/A
1:50 AM41 °FPassing clouds.9 mph81%29.89 "HgN/A
12:50 AM43 °FPassing clouds.12 mph76%29.89 "HgN/A
11:50 PM
Mon, Apr 27
43 °FClear.8 mph76%29.89 "HgN/A
10:50 PM45 °FClear.10 mph66%29.89 "HgN/A
9:50 PM46 °FPassing clouds.10 mph66%29.89 "HgN/A
8:50 PM48 °FOvercast.10 mph58%29.89 "HgN/A
7:56 PM52 °FSunny.12 mph47%29.86 "Hg10 mi
Weather by CustomWeather, © 2015

See weather overviewHow to use our weather pages